Tracking 27419 objects as of 10-Jun-2023
HD Live streaming from Space Station
objects crossing your sky now

INS-2TD

Track INS-2TD now!
10-day predictions


NORAD ID: 51658
Int'l Code: 2022-013C
Perigee: 498.6 km
Apogee: 513.0 km
Inclination: 97.5 °
Period: 94.6 minutes
Semi major axis: 6876 km
RCS: Unknown
Launch date: February 14, 2022
Source: India (IND)
Launch site: SRIHARIKOTA (SRI)
Your satellite tracking list
Your tracking list is empty




NASA's NSSDC Master Catalog

Two Line Element Set (TLE):
1 51658U 22013C   23160.75218892  .00014788  00000-0  64209-3 0  9999
2 51658  97.5466 172.9353 0010458  46.3038 313.9063 15.22370564 72858
Source of the keplerian elements: AFSPC